FW8095 Weather Reports


Display with metric or nautical units.
time (UTC)temp
F
wind
direction
speed
MPH
gust
MPH
rain 1hr
in
rain 24hr
in
rain mn
in
humidity
%
barometer
mb
20260904014549 84 0 0.0 0.0 0.00 0.00 0.00 74 1015.9
20260904013042 84 0 0.0 0.0 0.00 0.00 0.00 73 1015.7
20260904011543 85 0 0.0 0.0 0.00 0.00 0.00 72 1015.7
20260904010053 85 0 0.0 0.0 0.00 0.00 0.00 71 1015.4
20260904004556 86 0 0.0 0.0 0.00 0.00 0.00 71 1015.3
20260904003049 87 0 0.0 0.0 0.00 0.00 0.00 70 1015.3
20260904001544 87 0 0.0 0.0 0.00 0.00 0.00 69 1015.2
20260904000131 88 0 0.0 1.0 0.00 0.00 0.00 68 1015.2
20260903234544 88 0 0.0 0.0 0.00 0.00 0.00 67 1015.2
20260903233047 89 0 0.0 1.0 0.00 0.00 0.00 65 1015.1
20260903231545 90 0 0.0 1.0 0.00 0.00 0.00 63 1015.0
20260903230048 91 196 0.0 1.0 0.00 0.00 0.00 60 1015.0
20260903224542 93 0 0.0 1.0 0.00 0.00 0.00 58 1015.0
20260903223045 93 0 0.0 1.0 0.00 0.00 0.00 56 1014.9
20260903221546 94 0 0.0 2.0 0.00 0.00 0.00 54 1014.9
20260903220045 94 109 0.0 4.0 0.00 0.00 0.00 53 1014.7
20260903214546 95 129 1.0 5.0 0.00 0.00 0.00 51 1014.5
20260903213045 95 257 0.0 3.0 0.00 0.00 0.00 52 1014.7
20260903211611 96 0 0.0 5.0 0.00 0.00 0.00 51 1014.5
20260903210040 96 85 1.0 5.0 0.00 0.00 0.00 49 1014.6
20260903204546 96 160 0.0 5.0 0.00 0.00 0.00 51 1014.7
20260903203046 95 99 0.0 3.0 0.00 0.00 0.00 52 1014.9
20260903201545 95 93 1.0 7.0 0.00 0.00 0.00 53 1015.2
20260903200040 95 93 0.0 3.0 0.00 0.00 0.00 51 1015.5
20260903194545 95 279 1.0 3.0 0.00 0.00 0.00 52 1015.7
20260903193046 96 70 1.0 5.0 0.00 0.00 0.00 51 1016.1
20260903191542 96 25 1.0 3.0 0.00 0.00 0.00 50 1016.2
20260903190048 97 89 1.0 3.0 0.00 0.00 0.00 50 1016.3
20260903184545 99 91 1.0 5.0 0.00 0.00 0.00 47 1016.4
20260903183042 98 293 1.0 5.0 0.00 0.00 0.00 50 1016.6
20260903181538 98 98 0.0 4.0 0.00 0.00 0.00 51 1016.9
20260903180050 98 279 1.0 6.0 0.00 0.00 0.00 51 1016.9
20260903174600 96 113 2.0 5.0 0.00 0.00 0.00 51 1017.1
20260903173043 98 103 0.0 5.0 0.00 0.00 0.00 49 1017.2
20260903171548 98 0 1.0 3.0 0.00 0.00 0.00 48 1017.4
20260903170105 98 98 1.0 4.0 0.00 0.00 0.00 49 1017.6
20260903164550 97 223 1.0 3.0 0.00 0.00 0.00 54 1017.8
20260903163038 97 87 1.0 4.0 0.00 0.00 0.00 54 1017.9
20260903161546 97 98 1.0 4.0 0.00 0.00 0.00 55 1018.0
20260903160047 96 86 1.0 3.0 0.00 0.00 0.00 56 1018.2
20260903154546 97 96 1.0 3.0 0.00 0.00 0.00 56 1018.4
20260903153045 95 0 1.0 4.0 0.00 0.00 0.00 57 1018.4
20260903151547 93 259 0.0 3.0 0.00 0.00 0.00 61 1018.4
20260903150046 92 0 0.0 2.0 0.00 0.00 0.00 63 1018.3
20260903144548 91 115 1.0 3.0 0.00 0.00 0.00 63 1018.1
20260903143044 90 184 0.0 2.0 0.00 0.00 0.00 67 1018.1
20260903141549 88 0 0.0 0.0 0.00 0.00 0.00 70 1018.2
20260903140047 86 0 0.0 0.0 0.00 0.00 0.00 73 1018.1
20260903134547 84 0 0.0 0.0 0.00 0.00 0.00 77 1018.1
20260903133050 82 0 0.0 0.0 0.00 0.00 0.00 81 1018.3
20260903131555 81 0 0.0 0.0 0.00 0.00 0.00 85 1018.3
20260903130044 79 0 0.0 0.0 0.00 0.00 0.00 86 1018.2
20260903124541 78 0 0.0 0.0 0.00 0.00 0.00 89 1018.1
20260903123048 77 0 0.0 0.0 0.00 0.00 0.00 90 1018.1
20260903121546 76 0 0.0 0.0 0.00 0.00 0.00 92 1017.9
20260903120043 76 0 0.0 0.0 0.00 0.00 0.00 92 1018.0
20260903114545 75 0 0.0 0.0 0.00 0.00 0.00 92 1018.0
20260903113045 75 0 0.0 0.0 0.00 0.00 0.00 92 1017.8
20260903111619 75 0 0.0 0.0 0.00 0.00 0.00 91 1017.6
20260903110043 76 0 0.0 0.0 0.00 0.00 0.00 91 1017.4
20260903104553 76 0 0.0 0.0 0.00 0.00 0.00 91 1017.2
20260903103045 76 0 0.0 0.0 0.00 0.00 0.00 91 1017.3
20260903101548 76 0 0.0 0.0 0.00 0.00 0.00 90 1017.2
20260903100041 76 0 0.0 0.0 0.00 0.00 0.00 90 1017.2
20260903094555 76 0 0.0 0.0 0.00 0.00 0.00 89 1017.3
20260903093048 76 0 0.0 0.0 0.00 0.00 0.00 88 1017.2
20260903091545 76 0 0.0 0.0 0.00 0.00 0.00 87 1017.4
20260903090051 77 0 0.0 0.0 0.00 0.00 0.00 87 1017.2
20260903084545 77 0 0.0 0.0 0.00 0.00 0.00 88 1017.1
20260903083044 77 0 0.0 0.0 0.00 0.00 0.00 88 1017.2
20260903081543 77 0 0.0 0.0 0.00 0.00 0.00 88 1017.1
20260903080047 77 0 0.0 0.0 0.00 0.00 0.00 88 1017.0
20260903074544 77 0 0.0 0.0 0.00 0.00 0.00 87 1017.0
20260903073046 77 0 0.0 0.0 0.00 0.00 0.00 87 1017.0
20260903071547 78 0 0.0 0.0 0.00 0.00 0.00 86 1017.3
20260903070046 78 0 0.0 0.0 0.00 0.00 0.00 86 1017.2
20260903064544 78 0 0.0 0.0 0.00 0.00 0.00 85 1017.3
20260903063041 79 0 0.0 0.0 0.00 0.00 0.00 84 1017.3
20260903061559 79 0 0.0 0.0 0.00 0.00 0.00 84 1017.4
20260903060048 79 0 0.0 0.0 0.00 0.00 0.00 83 1017.3
20260903054542 79 0 0.0 0.0 0.00 0.00 0.00 82 1017.3
20260903053055 79 0 0.0 0.0 0.00 0.00 0.00 81 1017.4
20260903051541 80 0 0.0 0.0 0.00 0.00 0.00 80 1017.3
20260903050045 80 0 0.0 0.0 0.00 0.00 0.00 79 1017.4
20260903044540 81 0 0.0 0.0 0.00 0.00 0.00 79 1017.4
20260903043046 81 0 0.0 0.0 0.00 0.00 0.00 78 1017.3
20260903041546 81 0 0.0 0.0 0.00 0.00 0.00 77 1017.5
20260903040040 82 0 0.0 0.0 0.00 0.00 0.00 76 1017.4
20260903034546 82 0 0.0 0.0 0.00 0.00 0.00 75 1017.5
20260903033051 83 0 0.0 0.0 0.00 0.00 0.00 75 1017.4
20260903031550 83 0 0.0 0.0 0.00 0.00 0.00 74 1017.4
20260903030106 83 0 0.0 0.0 0.00 0.00 0.00 73 1017.4
20260903024548 83 0 0.0 0.0 0.00 0.00 0.00 73 1017.3
20260903023046 83 0 0.0 0.0 0.00 0.00 0.00 71 1017.5
20260903021545 84 0 0.0 0.0 0.00 0.00 0.00 70 1017.3
20260903020041 84 0 0.0 0.0 0.00 0.00 0.00 69 1017.2